User: anonymous   Login
Location: Unspecified
(0.0000°N, 0.0000°E)
Time: 20:20:05
(UTC+00:00)
Language:

SICRAL 1 - Orbit

View from above orbital plane
View from above orbital plane
View from above satellite
View from above satellite

Ground track
Ground track

The orbit data is extracted from the following two-line orbital elements,

1 26694U 01005A   17315.94953607 0.00000000  00000-0  00000-0 0    06
2 26694   7.5335  49.2968 0003514 198.2925 161.7676  1.00270000    03
Epoch (UTC): 11 November 2017 22:47:19
Eccentricity: 0.0003514
inclination: 7.5335°
perigee height: 35772 km
apogee height: 35801 km
right ascension of ascending node: 49.2968°
argument of perigee: 198.2925°
revolutions per day: 1.00270000
mean anomaly at epoch: 161.7676°
orbit number at epoch: 0

The dashed part of the orbit path shows where the satellite is in the earth's shadow,  

DLR